AirNav   Duncan Aviation - Near you to keep you flying
 
 829 users online  

85KY Deer Run Airpark
New Castle, Kentucky, USA

GOING TO NEW CASTLE?


FAA INFORMATION EFFECTIVE 26 JANUARY 2023

Location

FAA Identifier: 85KY
Lat/Long: 38-28-13.0000N 085-08-19.0000W
38-28.216667N 085-08.316667W
38.4702778,-85.1386111
(estimated)
Elevation: 890 ft. / 271.3 m (surveyed)
Variation: 02W (1985)
From city: 3 miles NE of NEW CASTLE, KY
Time zone: UTC -5 (UTC -4 during Daylight Saving Time)
Zip code: 40011

Airport Operations

Airport use: Private use. Permission required prior to landing
Activation date: 03/1988
Control tower: no
ARTCC: INDIANAPOLIS CENTER
FSS: LOUISVILLE FLIGHT SERVICE STATION
Attendance: IREG
Wind indicator: yes
Segmented circle: no

Nearby radio navigation aids

VOR radial/distance  VOR name  Freq  Var
FFTr331/(20.4)FRANKFORT VOR109.4003W
IIUr042/30.2LOUISVILLE VORTAC114.8001E
CVGr216/38.6CINCINNATI VORTAC117.3004W

Airport Services

Runway Information

Runway 14/32

Dimensions: 3100 x 60 ft. / 945 x 18 m
Surface: turf
Runway edge markings: RED CONES THLDS & EDGE.
RUNWAY 14  RUNWAY 32
Traffic pattern: leftleft
Obstructions: none14 ft. pline, marked, 300 ft. from runway

Airport Ownership and Management from official FAA records

Ownership: Privately-owned
Owner: DEER RUN AIRPARK OWNERS ASSN
2680 DRENNON RD
NEW CASTLE, KY 40050
Phone 502-594-0563
GEORGE PASCAL
Manager: WILLIAM G GEIGER
2680 DRENNON RD
NEW CASTLE, KY 40050
Phone 502-706-0108

Airport Operational Statistics

Aircraft based on the field: 9
Single engine airplanes: 9
    

Additional Remarks

FOR CD CTC LOUISVILLE APCH AT 502-375-7499

Instrument Procedures

There are no published instrument procedures at 85KY.

Some nearby airports with instrument procedures:

KFFT - Capital City Airport (20 nm SE)
KIMS - Madison Municipal Airport (23 nm NW)
KLOU - Bowman Field Airport (29 nm SW)
KJVY - Clark Regional Airport (29 nm W)
KSDF - Louisville Muhammad Ali International Airport (33 nm SW)
 
Loc | Ops | Rwys | IFR | FBO | Links
Com | Nav | Svcs | Stats | Notes
Area around 85KY (Deer Run Airpark)
 
Road maps at: MapQuest Bing Google
 
Aerial photo
No photo
 
Sectional chart

 
Airport distance calculator
Flying to Deer Run Airpark? Find the distance to fly.

From to 85KY

Sunrise and sunset
Times for 02-Feb-2023
 Local
(UTC-5)
 Zulu
(UTC)
Morning civil twilight07:1812:18
Sunrise07:4612:46
Sunset18:0323:03
Evening civil twilight18:3023:30

Current date and time
Zulu (UTC)  02-Feb-2023 12:30:30
Local (UTC-5)  02-Feb-2023 07:30:30
 
METAR
KFFT 
21nm SE 
021153Z AUTO 00000KT 5SM BR CLR M03/M04 A3025 RMK AO2 SLP252 T10331044 11017 21039 55002
KIMS 
23nm NW 
021215Z AUTO 00000KT 10SM CLR M05/M06 A3028 RMK AO2
KJVY 
29nm W 
021215Z AUTO 00000KT 10SM CLR M05/M05 RMK AO2 PWINO
KLOU 
29nm SW 
021153Z 00000KT 10SM CLR M03/M05 A3028 RMK AO2 SLP257 T10331050 11011 21033 55002
KSDF 
33nm SW 
021156Z 00000KT 10SM FEW180 BKN200 OVC250 M02/M06 A3028 RMK AO2 SLP257 T10171056 11006 21022 58001
K27K 
36nm SE 
021215Z AUTO 00000KT 7SM CLR M05/M05 A3026 RMK AO1
KLEX 
36nm SE 
021154Z 36003KT 7SM CLR M03/M05 A3025 RMK AO2 SLP254 T10281050 11011 21028 53003
KK62 
38nm E 
021215Z AUTO 23003KT 10SM CLR M05/M07 A3026 RMK AO2
TAF
KSDF 
33nm SW 
020520Z 0206/0312 24003KT P6SM OVC190 FM021800 26008KT P6SM BKN220 FM030000 27006KT P6SM SKC FM030600 33011KT P6SM SCT020
KLEX 
36nm SE 
021120Z 0212/0312 21003KT P6SM OVC190 FM021700 27007KT P6SM BKN250 FM030400 32009KT P6SM SCT020
NOTAMs
Click for the latest NOTAMs
NOTAMs are issued by the DoD/FAA and will open in a separate window not controlled by AirNav.

 

 
 

Would you like to see your business listed on this page?

 If your business provides an interesting product or service to pilots, flight crews, aircraft, or users of the Deer Run Airpark, you should consider listing it here.  To start the listing process, click on the button below
 
Add a business
 

Other Pages about Deer Run Airpark

Update a link
 
Copyright © AirNav, LLC. All rights reserved. Privacy Policy  Contact